Regional Weather Roundup
Issued by NWS

Home | Current Version | Previous Version | Graphics & Text | Print | Product List | Glossary On
Versions: 1 2 3 4 5 6 7 8 9 10 11 12 13 14 15 16 17 18 19 20 21 22 23 24 25 26 27 28 29 30 31 32 33 34 35 36 37 38 39 40 41 42 43 44 45 46 47 48 49 50
000
ASUS43 KFSD 280410
RWRSD

WEATHER ROUNDUP FOR SOUTH DAKOTA
NATIONAL WEATHER SERVICE SIOUX FALLS SD
1100 PM CDT SUN JUL 27 2014

NOTE: "FAIR" INDICATES FEW OR NO CLOUDS BELOW 12,000 FEET WITH NO
SIGNIFICANT WEATHER AND/OR OBSTRUCTIONS TO VISIBILITY.


SDZ001>005-009-010-012>017-280500-
NORTHWEST AND NORTH CENTRAL SOUTH DAKOTA

CITY           SKY/WX    TMP DP  RH WIND       PRES   REMARKS
BUFFALO          N/A     60  53  77 E10       30.26R
FAITH            N/A     58  52  80 E8        30.31R
MOBRIDGE       CLEAR     54  51  90 N6        30.27R
$$

SDZ012>016-024>037-041>051-057-063-072>074-280500-
SOUTHWEST AND SOUTH CENTRAL SOUTH DAKOTA

CITY           SKY/WX    TMP DP  RH WIND       PRES   REMARKS
RAPID CTY ARPT CLEAR     63  52  67 E8        30.32R
PIERRE         CLEAR     61  54  77 NE9       30.26R
CUSTER         CLEAR     59  47  64 NE6       30.42R
ELLSWORTH AFB  CLEAR     66  53  61 E7        30.32R
PHILIP         CLEAR     62  51  67 NE7       30.28R
PINE RIDGE     CLEAR     60  53  77 NE7       30.31R
WINNER         FAIR      65  52  62 E5        30.27R
$$

SDZ004>011-016>023-039-040-280500-
NORTHEAST SOUTH DAKOTA

CITY           SKY/WX    TMP DP  RH WIND       PRES   REMARKS
ABERDEEN       CLEAR     55  53  93 NW7       30.25R
WATERTOWN      CLOUDY    62  54  74 N13       30.22R
SISSETON         N/A     57  56  96 N7        30.20R
$$

SDZ017-020-022-023-036>040-048>070-280500-
SOUTHEAST SOUTH DAKOTA

CITY           SKY/WX    TMP DP  RH WIND       PRES   REMARKS
SIOUX FALLS    MOCLDY    63  57  81 N9        30.21R
HURON          CLEAR     55  53  93 NW6       30.24R
CHAMBERLAIN    CLEAR     61  55  79 E5        30.27R
MITCHELL       CLEAR     60  55  83 NW5       30.25R
YANKTON        CLEAR     61  54  77 NW6       30.23R
$$

ABBREVIATIONS USED IN REMARKS
   TC - TEMPERATURE IN CELSIUS
  WCI - WIND CHILL INDEX
   HX - HEAT INDEX
  VSB - VISIBILITY




USA.gov is the U.S. government's official web portal to all federal, state and local government web resources and services.